Regional Weather Roundup
Issued by NWS

Home | Current Version | Previous Version | Graphics & Text | Print | Product List | Glossary Off
Versions: 1 2 3 4 5 6 7 8 9 10 11 12 13 14 15 16 17 18 19 20 21 22 23 24 25 26 27 28 29 30 31 32 33 34 35 36 37 38 39 40 41 42 43 44 45 46 47 48 49 50

000
ASUS43 KLMK 261610
RWRKY
NATIONAL WEATHER SERVICE LOUISVILLE KY
1100 AM EST WED NOV 26 2014

NOTE "FAIR" INDICATES FEW OR NO CLOUDS BELOW 12,000 FEET
WITH NO SIGNIFICANT WEATHER AND/OR OBSTRUCTIONS TO VISIBILITY.

KYZ001>023-026-027-061>063-070>075-261700-
WESTERN AND SOUTH CENTRAL KENTUCKY

CITY           SKY/WX    TMP DP  RH WIND       PRES   REMARKS
PADUCAH        MOSUNNY   39  31  72 SE7       30.11F WCI  34
HENDERSON      SUNNY     34  27  75 SE6       30.14S WCI  29
OWENSBORO      MOSUNNY   35  29  79 CALM      30.16R
HOPKINSVILLE   SUNNY     39  30  69 VRB5      30.15R
BOWLING GREEN  SUNNY     36  29  75 CALM      30.14F
GLASGOW        MOSUNNY   37  30  73 CALM      30.13S
$$

KYZ024-025-028>034-038-045-046-053-261700-
NORTH CENTRAL KENTUCKY

CITY           SKY/WX    TMP DP  RH WIND       PRES   REMARKS
LOUISVILLE/SDF MOSUNNY   37  29  72 VRB3      30.13F
LOUISVILLE/LOU SUNNY     37  29  72 E6        30.13F WCI  32
FORT KNOX      SUNNY     34  28  80 E6        30.10F WCI  29
$$

KYZ035>037-039>044-047>052-055>060-089>105-261700-
NORTHEAST KENTUCKY

CITY           SKY/WX    TMP DP  RH WIND       PRES   REMARKS
LEXINGTON      SUNNY     37  30  75 N5        30.10F WCI  33
COVINGTON      CLOUDY    33  25  72 NE6       30.12F WCI  28
FRANKFORT      SUNNY     35  28  75 E5        30.11F WCI  31
$$

KYZ054-064>069-076>088-106>120-261700-
SOUTHEAST KENTUCKY

CITY           SKY/WX    TMP DP  RH WIND       PRES   REMARKS
JACKSON        CLOUDY    38  28  67 W3        30.06F
LONDON         SUNNY     43  30  60 VRB5      30.08F
SOMERSET       SUNNY     39  30  70 W6        30.12F WCI  35
MIDDLESBORO    NOT AVBL
MONTICELLO     SUNNY     43  31  63 NW3       30.14F
$$



USA.gov is the U.S. government's official web portal to all federal, state and local government web resources and services.